AFR671 FMEE-LFPO

Flight info

Callsign AFR671
Flight time N/A
Altitude 32000
Route UVENA2P UVENA UN304 DENLI/N0498F330 UN304 APKAK/N0496F340 UN304 DWA DCT XADOX DCT KONET/N0488F350 UG650 RASKA/N0488F360 T513 EGMEG/N0486F350 G660 JDW/N0485F360 L677 CVO L617 TANSA UL613 KOR DCT TUMBO/N0470F380 DCT OVVER DCT RODON DCT VAKSU DCT BAXON DCT CERVI DCT MOLUS DCT UNKIR DCT DJL
Aircraft B77W/H-SDE1E2E3FGHIJ2J3J4J5M1RWXY/LB1D1

Departure

Time 2026-04-16 11:13
Airport Roland Garros Airport (FMEE)

Arrival

Time N/A
Airport Paris-Orly Airport (LFPO)
Time Latitude Longitude Altitude Speed Heading
2026-04-16 10:23 -20.89034 55.51095 79 ft 0 kts 207°
2026-04-16 10:59 -20.89030 55.51096 84 ft 2 kts 206°
2026-04-16 10:59 -20.89020 55.51101 85 ft 2 kts 206°
2026-04-16 10:59 -20.88999 55.51112 83 ft 3 kts 206°
2026-04-16 11:00 -20.88984 55.51121 85 ft 3 kts 220°
2026-04-16 11:00 -20.88972 55.51133 85 ft 3 kts 243°
2026-04-16 11:00 -20.88966 55.51151 85 ft 3 kts 263°
2026-04-16 11:00 -20.88965 55.51172 85 ft 3 kts 277°
2026-04-16 11:01 -20.88969 55.51191 85 ft 2 kts 289°
2026-04-16 11:01 -20.88974 55.51206 85 ft 1 kts 296°
2026-04-16 11:01 -20.88982 55.51223 85 ft 3 kts 296°
2026-04-16 11:01 -20.88990 55.51239 85 ft 1 kts 296°
2026-04-16 11:02 -20.88990 55.51241 85 ft 0 kts 296°
2026-04-16 11:03 -20.88991 55.51230 85 ft 3 kts 259°
2026-04-16 11:04 -20.89010 55.51225 85 ft 3 kts 161°
2026-04-16 11:04 -20.89018 55.51263 82 ft 9 kts 95°
2026-04-16 11:04 -20.89035 55.51333 83 ft 20 kts 114°
2026-04-16 11:04 -20.89128 55.51535 89 ft 20 kts 116°
2026-04-16 11:05 -20.89174 55.51634 90 ft 24 kts 117°
2026-04-16 11:05 -20.89268 55.51832 93 ft 32 kts 117°
2026-04-16 11:05 -20.89364 55.52036 94 ft 23 kts 117°
2026-04-16 11:05 -20.89437 55.52178 94 ft 21 kts 117°
2026-04-16 11:06 -20.89465 55.52236 96 ft 0 kts 116°
2026-04-16 11:06 -20.89466 55.52247 95 ft 3 kts 105°
2026-04-16 11:06 -20.89484 55.52251 94 ft 3 kts 194°
2026-04-16 11:06 -20.89486 55.52228 95 ft 4 kts 299°
2026-04-16 11:07 -20.89444 55.52188 96 ft 12 kts 327°
2026-04-16 11:07 -20.89327 55.52203 85 ft 25 kts 15°
2026-04-16 11:07 -20.89220 55.52138 63 ft 22 kts 301°
2026-04-16 11:07 -20.89127 55.51949 62 ft 34 kts 295°
2026-04-16 11:08 -20.89009 55.51682 66 ft 42 kts 295°
2026-04-16 11:08 -20.88894 55.51435 60 ft 26 kts 307°
2026-04-16 11:08 -20.88794 55.51427 56 ft 11 kts 60°
2026-04-16 11:08 -20.88799 55.51478 57 ft 11 kts 105°
2026-04-16 11:09 -20.88825 55.51582 56 ft 18 kts 104°
2026-04-16 11:09 -20.88866 55.51776 52 ft 34 kts 102°
2026-04-16 11:09 -20.88926 55.52070 50 ft 45 kts 102°
2026-04-16 11:09 -20.88988 55.52385 52 ft 41 kts 102°
2026-04-16 11:10 -20.89044 55.52670 51 ft 37 kts 102°
2026-04-16 11:10 -20.89098 55.52938 51 ft 35 kts 102°
2026-04-16 11:10 -20.89149 55.53186 50 ft 33 kts 102°
2026-04-16 11:10 -20.89181 55.53388 48 ft 24 kts 90°
2026-04-16 11:11 -20.89207 55.53435 48 ft 1 kts 189°
2026-04-16 11:11 -20.89213 55.53429 48 ft 1 kts 226°
2026-04-16 11:11 -20.89214 55.53420 48 ft 1 kts 262°
2026-04-16 11:11 -20.89211 55.53411 48 ft 2 kts 292°
2026-04-16 11:12 -20.89183 55.53327 44 ft 26 kts 285°
2026-04-16 11:12 -20.89080 55.52843 52 ft 111 kts 283°
2026-04-16 11:12 -20.88844 55.51719 56 ft 194 kts 281°
2026-04-16 11:12 -20.88635 55.50686 204 ft 228 kts 284°
2026-04-16 11:13 -20.88256 55.48940 1490 ft 222 kts 284°
2026-04-16 11:13 -20.87845 55.47327 2502 ft 229 kts 290°
2026-04-16 11:13 -20.87006 55.45773 2744 ft 247 kts 309°
2026-04-16 11:13 -20.85847 55.44304 3060 ft 266 kts 310°
2026-04-16 11:14 -20.84620 55.42800 3689 ft 271 kts 316°
2026-04-16 11:14 -20.83007 55.41723 4203 ft 277 kts 338°
2026-04-16 11:14 -20.81179 55.40978 4860 ft 283 kts 339°
2026-04-16 11:14 -20.79335 55.40219 5623 ft 285 kts 338°
2026-04-16 11:15 -20.77458 55.39424 6408 ft 287 kts 338°
2026-04-16 11:15 -20.75599 55.38617 7070 ft 291 kts 337°
2026-04-16 11:15 -20.73666 55.37760 7735 ft 295 kts 336°
2026-04-16 11:15 -20.71804 55.36923 8384 ft 298 kts 336°
2026-04-16 11:16 -20.69846 55.36033 9071 ft 302 kts 336°
2026-04-16 11:16 -20.67898 55.35141 9749 ft 306 kts 336°
2026-04-16 11:16 -20.65934 55.34236 10291 ft 312 kts 335°
2026-04-16 11:16 -20.63872 55.33282 10472 ft 334 kts 335°
2026-04-16 11:17 -20.61673 55.32262 10633 ft 355 kts 335°
2026-04-16 11:17 -20.59348 55.31182 10868 ft 372 kts 335°
2026-04-16 11:17 -20.56941 55.30064 11362 ft 381 kts 335°
2026-04-16 11:17 -20.54494 55.28928 11980 ft 386 kts 335°
2026-04-16 11:18 -20.52023 55.27782 12711 ft 388 kts 334°
2026-04-16 11:18 -20.49548 55.26633 13453 ft 389 kts 334°
2026-04-16 11:18 -20.47053 55.25475 14100 ft 392 kts 334°
2026-04-16 11:18 -20.44540 55.24309 14660 ft 395 kts 334°
2026-04-16 11:19 -20.42013 55.23135 15220 ft 399 kts 334°
2026-04-16 11:19 -20.39461 55.21951 15778 ft 403 kts 334°
2026-04-16 11:19 -20.36870 55.20749 16337 ft 406 kts 334°
2026-04-16 11:19 -20.34274 55.19546 16893 ft 409 kts 334°
2026-04-16 11:20 -20.31646 55.18328 17429 ft 413 kts 334°
2026-04-16 11:20 -20.28995 55.17100 17961 ft 416 kts 334°
2026-04-16 11:20 -20.26333 55.15868 18442 ft 420 kts 334°
2026-04-16 11:20 -20.23635 55.14618 18911 ft 423 kts 334°
2026-04-16 11:21 -20.20937 55.13370 19370 ft 426 kts 334°
2026-04-16 11:21 -20.18161 55.12086 19840 ft 429 kts 334°
2026-04-16 11:21 -20.15412 55.10816 20276 ft 433 kts 334°
2026-04-16 11:21 -20.12642 55.09535 20723 ft 436 kts 334°
2026-04-16 11:22 -20.09846 55.08244 21164 ft 439 kts 334°
2026-04-16 11:22 -20.07031 55.06943 21608 ft 442 kts 334°
2026-04-16 11:22 -20.04206 55.05640 22038 ft 446 kts 334°
2026-04-16 11:22 -20.01342 55.04318 22453 ft 449 kts 334°
2026-04-16 11:23 -19.98479 55.02997 22883 ft 452 kts 334°
2026-04-16 11:23 -19.95562 55.01652 23308 ft 456 kts 334°
2026-04-16 11:23 -19.92610 55.00292 23676 ft 459 kts 334°
2026-04-16 11:23 -19.89663 54.98934 24030 ft 461 kts 334°
2026-04-16 11:24 -19.86716 54.97577 24391 ft 464 kts 334°
2026-04-16 11:24 -19.83747 54.96211 24736 ft 466 kts 334°
2026-04-16 11:24 -19.80760 54.94836 25072 ft 468 kts 334°
2026-04-16 11:24 -19.77719 54.93438 25422 ft 471 kts 334°
2026-04-16 11:25 -19.74708 54.92054 25772 ft 473 kts 334°
2026-04-16 11:25 -19.71684 54.90664 26110 ft 476 kts 334°
2026-04-16 11:25 -19.68638 54.89265 26440 ft 478 kts 334°
2026-04-16 11:25 -19.65576 54.87859 26773 ft 480 kts 334°
2026-04-16 11:26 -19.62506 54.86450 27107 ft 483 kts 334°
2026-04-16 11:26 -19.59411 54.85029 27421 ft 485 kts 334°
2026-04-16 11:26 -19.56306 54.83605 27737 ft 487 kts 334°
2026-04-16 11:26 -19.53191 54.82177 28047 ft 489 kts 334°
2026-04-16 11:27 -19.50048 54.80737 28342 ft 492 kts 334°
2026-04-16 11:27 -19.46895 54.79293 28637 ft 493 kts 334°
2026-04-16 11:27 -19.43732 54.77845 28900 ft 496 kts 334°
2026-04-16 11:27 -19.40507 54.76369 29168 ft 498 kts 334°
2026-04-16 11:28 -19.37336 54.74919 29442 ft 499 kts 334°
2026-04-16 11:28 -19.34138 54.73457 29696 ft 501 kts 334°
2026-04-16 11:28 -19.30935 54.71993 29851 ft 504 kts 334°
2026-04-16 11:29 -19.24473 54.69042 29921 ft 504 kts 334°
2026-04-16 11:29 -19.18061 54.66117 29925 ft 500 kts 334°
2026-04-16 11:30 -19.12753 54.63697 29928 ft 499 kts 334°
2026-04-16 11:30 -19.06375 54.60790 29931 ft 499 kts 334°
2026-04-16 11:31 -18.99942 54.57861 29934 ft 500 kts 334°
2026-04-16 11:31 -18.93562 54.54959 29928 ft 500 kts 335°
2026-04-16 11:32 -18.87156 54.52047 29929 ft 501 kts 335°
2026-04-16 11:32 -18.80745 54.49136 29929 ft 501 kts 335°
2026-04-16 11:33 -18.74344 54.46231 29932 ft 501 kts 335°
2026-04-16 11:33 -18.67933 54.43324 29923 ft 501 kts 335°
2026-04-16 11:34 -18.61544 54.40429 29928 ft 500 kts 335°
2026-04-16 11:34 -18.55176 54.37469 29926 ft 500 kts 334°
2026-04-16 11:35 -18.48850 54.34436 29927 ft 499 kts 334°
2026-04-16 11:35 -18.42522 54.31411 29931 ft 499 kts 334°
2026-04-16 11:36 -18.36222 54.28417 29927 ft 498 kts 334°
2026-04-16 11:36 -18.29829 54.25386 29930 ft 498 kts 334°
2026-04-16 11:37 -18.23502 54.22388 29929 ft 498 kts 334°
2026-04-16 11:37 -18.17187 54.19397 29926 ft 498 kts 334°
2026-04-16 11:38 -18.10865 54.16405 29925 ft 498 kts 334°
2026-04-16 11:38 -18.04543 54.13411 29927 ft 498 kts 334°
2026-04-16 11:39 -17.98222 54.10413 29927 ft 498 kts 335°
2026-04-16 11:39 -17.91902 54.07415 29915 ft 498 kts 335°
2026-04-16 11:40 -17.85590 54.04425 29924 ft 498 kts 335°
2026-04-16 11:40 -17.79260 54.01429 29918 ft 498 kts 335°
2026-04-16 11:41 -17.72931 53.98436 29929 ft 498 kts 335°
2026-04-16 11:41 -17.66613 53.95450 29921 ft 499 kts 335°
2026-04-16 11:42 -17.60286 53.92463 29916 ft 499 kts 335°
2026-04-16 11:42 -17.53951 53.89474 29921 ft 499 kts 335°
2026-04-16 11:43 -17.47619 53.86489 29925 ft 499 kts 335°
2026-04-16 11:43 -17.41287 53.83505 29925 ft 498 kts 335°
2026-04-16 11:44 -17.34960 53.80527 29920 ft 498 kts 335°
2026-04-16 11:44 -17.28644 53.77556 29920 ft 498 kts 335°
2026-04-16 11:45 -17.22326 53.74587 29941 ft 498 kts 335°
2026-04-16 11:45 -17.15993 53.71612 29918 ft 498 kts 335°
2026-04-16 11:46 -17.09667 53.68643 29913 ft 498 kts 335°
2026-04-16 11:46 -17.03346 53.65679 29910 ft 497 kts 335°
2026-04-16 11:47 -16.97030 53.62719 29910 ft 497 kts 335°
2026-04-16 11:47 -16.90712 53.59760 29910 ft 497 kts 335°
2026-04-16 11:48 -16.84392 53.56803 29915 ft 497 kts 335°
2026-04-16 11:48 -16.78071 53.53847 29913 ft 498 kts 335°
2026-04-16 11:49 -16.71739 53.50888 29911 ft 499 kts 335°
2026-04-16 11:49 -16.65360 53.47909 29910 ft 500 kts 335°
2026-04-16 11:50 -16.59000 53.44941 29910 ft 500 kts 335°
2026-04-16 11:50 -16.52639 53.41976 29908 ft 501 kts 335°
2026-04-16 11:51 -16.46264 53.39004 29911 ft 501 kts 335°
2026-04-16 11:51 -16.39902 53.36042 29912 ft 501 kts 336°
2026-04-16 11:52 -16.33535 53.33079 29904 ft 500 kts 336°
2026-04-16 11:52 -16.27142 53.30103 29903 ft 499 kts 336°
2026-04-16 11:53 -16.20807 53.27157 29907 ft 498 kts 336°
2026-04-16 11:53 -16.14448 53.24200 29905 ft 497 kts 336°
2026-04-16 11:54 -16.08185 53.21290 29900 ft 495 kts 336°
2026-04-16 11:54 -16.01900 53.18373 29900 ft 495 kts 336°
2026-04-16 11:55 -15.95595 53.15448 29904 ft 495 kts 336°
2026-04-16 11:55 -15.89291 53.12525 29898 ft 496 kts 336°
2026-04-16 11:56 -15.82975 53.09599 29903 ft 497 kts 336°
2026-04-16 11:56 -15.76650 53.06671 29901 ft 499 kts 336°
2026-04-16 11:57 -15.70299 53.03733 29897 ft 500 kts 336°
2026-04-16 11:57 -15.65010 53.01288 29894 ft 500 kts 336°
2026-04-16 11:58 -15.58652 52.98350 29900 ft 500 kts 336°
2026-04-16 11:58 -15.52256 52.95397 29898 ft 499 kts 336°
2026-04-16 11:59 -15.45908 52.92467 29896 ft 499 kts 336°
2026-04-16 11:59 -15.39572 52.89546 29895 ft 499 kts 336°
2026-04-16 12:00 -15.33237 52.86627 29895 ft 499 kts 335°
2026-04-16 12:00 -15.26886 52.83702 29893 ft 499 kts 335°
2026-04-16 12:01 -15.20543 52.80783 29893 ft 499 kts 335°
2026-04-16 12:01 -15.14180 52.77856 29894 ft 500 kts 335°
2026-04-16 12:02 -15.04632 52.73468 29891 ft 501 kts 335°
2026-04-16 12:02 -14.98226 52.70527 29893 ft 501 kts 335°
2026-04-16 12:03 -14.91755 52.67558 29892 ft 501 kts 335°
2026-04-16 12:03 -14.85338 52.64616 29893 ft 501 kts 335°
2026-04-16 12:04 -14.78971 52.61698 29892 ft 500 kts 335°
2026-04-16 12:04 -14.72606 52.58783 29887 ft 500 kts 335°
2026-04-16 12:05 -14.66262 52.55880 29893 ft 499 kts 335°
2026-04-16 12:05 -14.59918 52.52979 29888 ft 498 kts 335°
2026-04-16 12:06 -14.53579 52.50081 29885 ft 497 kts 335°
2026-04-16 12:06 -14.47260 52.47195 29887 ft 496 kts 335°
2026-04-16 12:07 -14.40943 52.44311 29884 ft 496 kts 335°
2026-04-16 12:07 -14.34631 52.41431 29887 ft 496 kts 335°
2026-04-16 12:08 -14.28285 52.38538 29885 ft 495 kts 335°
2026-04-16 12:08 -14.21987 52.35668 29885 ft 495 kts 334°
2026-04-16 12:09 -14.15688 52.32800 29888 ft 495 kts 334°
2026-04-16 12:09 -14.09385 52.29931 29883 ft 494 kts 334°
2026-04-16 12:10 -14.03091 52.27068 29887 ft 494 kts 334°
2026-04-16 12:10 -13.96760 52.24191 29885 ft 494 kts 334°
2026-04-16 12:11 -13.90471 52.21333 29882 ft 494 kts 334°
2026-04-16 12:11 -13.84186 52.18480 29884 ft 494 kts 334°
2026-04-16 12:12 -13.77887 52.15622 29883 ft 494 kts 334°
2026-04-16 12:12 -13.71605 52.12773 29880 ft 494 kts 334°
2026-04-16 12:13 -13.65267 52.09900 29881 ft 494 kts 334°
2026-04-16 12:13 -13.59003 52.07063 29876 ft 494 kts 334°
2026-04-16 12:14 -13.52689 52.04204 29880 ft 494 kts 334°
2026-04-16 12:14 -13.46388 52.01353 29880 ft 495 kts 334°
2026-04-16 12:15 -13.40071 51.98497 29881 ft 495 kts 334°
2026-04-16 12:15 -13.33733 51.95637 29883 ft 495 kts 334°
2026-04-16 12:16 -13.27429 51.92792 29876 ft 495 kts 334°
2026-04-16 12:16 -13.21043 51.89910 29879 ft 494 kts 334°
2026-04-16 12:17 -13.15783 51.87538 29876 ft 494 kts 334°
2026-04-16 12:17 -13.09475 51.84696 29871 ft 494 kts 334°
2026-04-16 12:18 -13.03171 51.81856 29884 ft 493 kts 334°
2026-04-16 12:18 -12.96850 51.79010 29875 ft 493 kts 333°
2026-04-16 12:19 -12.90521 51.76162 29878 ft 493 kts 333°
2026-04-16 12:19 -12.84234 51.73335 29875 ft 493 kts 333°
2026-04-16 12:20 -12.77952 51.70511 29875 ft 493 kts 333°
2026-04-16 12:20 -12.71665 51.67687 29874 ft 493 kts 333°
2026-04-16 12:21 -12.65329 51.64842 29871 ft 493 kts 333°
2026-04-16 12:21 -12.58998 51.62001 29871 ft 493 kts 333°
2026-04-16 12:22 -12.52743 51.59196 29869 ft 493 kts 333°
2026-04-16 12:22 -12.46451 51.56375 29872 ft 493 kts 333°
2026-04-16 12:23 -12.40117 51.53537 29872 ft 493 kts 333°
2026-04-16 12:23 -12.33834 51.50724 29870 ft 493 kts 333°
2026-04-16 12:24 -12.27540 51.47907 29872 ft 493 kts 333°
2026-04-16 12:24 -12.21244 51.45090 29870 ft 494 kts 332°
2026-04-16 12:25 -12.14946 51.42273 29868 ft 494 kts 332°
2026-04-16 12:25 -12.08641 51.39456 29862 ft 494 kts 332°
2026-04-16 12:26 -12.02350 51.36649 29866 ft 494 kts 332°
2026-04-16 12:26 -11.96041 51.33834 29868 ft 495 kts 332°
2026-04-16 12:27 -11.89721 51.31014 29862 ft 495 kts 332°
2026-04-16 12:27 -11.83402 51.28197 29866 ft 495 kts 332°
2026-04-16 12:28 -11.77081 51.25379 29863 ft 496 kts 332°
2026-04-16 12:28 -11.70720 51.22546 29866 ft 496 kts 332°
2026-04-16 12:29 -11.64383 51.19724 29863 ft 497 kts 332°
2026-04-16 12:29 -11.58006 51.16887 29860 ft 497 kts 332°
2026-04-16 12:30 -11.51667 51.14067 29863 ft 497 kts 331°
2026-04-16 12:30 -11.45321 51.11246 29858 ft 497 kts 331°
2026-04-16 12:31 -11.38972 51.08425 29861 ft 497 kts 331°
2026-04-16 12:31 -11.32623 51.05606 29859 ft 497 kts 331°
2026-04-16 12:32 -11.27220 51.03207 29859 ft 497 kts 331°
2026-04-16 12:32 -11.19848 50.99936 29854 ft 498 kts 331°
2026-04-16 12:33 -11.13405 50.97078 29861 ft 498 kts 331°
2026-04-16 12:33 -11.07004 50.94241 29854 ft 499 kts 331°
2026-04-16 12:34 -11.01705 50.91893 29859 ft 499 kts 331°
2026-04-16 12:34 -10.94251 50.88591 29857 ft 500 kts 331°
2026-04-16 12:35 -10.87879 50.85771 29858 ft 500 kts 332°
2026-04-16 12:35 -10.82527 50.83403 29858 ft 501 kts 332°
2026-04-16 12:36 -10.76086 50.80554 29857 ft 501 kts 332°
2026-04-16 12:36 -10.69692 50.77728 29854 ft 501 kts 332°
2026-04-16 12:37 -10.63288 50.74898 29855 ft 502 kts 332°
2026-04-16 12:37 -10.56874 50.72065 29853 ft 502 kts 332°
2026-04-16 12:38 -10.50465 50.69236 29857 ft 503 kts 332°
2026-04-16 12:38 -10.44051 50.66406 29855 ft 503 kts 332°
2026-04-16 12:39 -10.37621 50.63570 29854 ft 503 kts 332°
2026-04-16 12:39 -10.31111 50.60700 29856 ft 504 kts 332°
2026-04-16 12:40 -10.24671 50.57862 29853 ft 504 kts 332°
2026-04-16 12:40 -10.18229 50.55025 29853 ft 504 kts 332°
2026-04-16 12:41 -10.11744 50.52169 29852 ft 504 kts 332°
2026-04-16 12:41 -10.05307 50.49336 29851 ft 505 kts 332°
2026-04-16 12:42 -9.98854 50.46497 29851 ft 505 kts 332°
2026-04-16 12:42 -9.92362 50.43643 29851 ft 506 kts 332°
2026-04-16 12:43 -9.85902 50.40804 29852 ft 506 kts 332°
2026-04-16 12:43 -9.79442 50.37966 29850 ft 506 kts 332°
2026-04-16 12:44 -9.72974 50.35124 29851 ft 507 kts 332°
2026-04-16 12:44 -9.66454 50.32261 29849 ft 507 kts 332°
2026-04-16 12:45 -9.59990 50.29424 29845 ft 507 kts 332°
2026-04-16 12:45 -9.53498 50.26576 29846 ft 508 kts 332°
2026-04-16 12:46 -9.47018 50.23735 29846 ft 508 kts 332°
2026-04-16 12:46 -9.40522 50.20887 29850 ft 508 kts 332°
2026-04-16 12:47 -9.34049 50.18050 29847 ft 509 kts 332°
2026-04-16 12:47 -9.27533 50.15197 29848 ft 509 kts 332°
2026-04-16 12:48 -9.20975 50.12325 29844 ft 510 kts 332°
2026-04-16 12:48 -9.14413 50.09454 29847 ft 510 kts 332°
2026-04-16 12:49 -9.07888 50.06599 29840 ft 511 kts 332°
2026-04-16 12:49 -9.01360 50.03745 29841 ft 511 kts 332°
2026-04-16 12:50 -8.94779 50.00868 29844 ft 512 kts 332°
2026-04-16 12:50 -8.88157 49.97974 29838 ft 512 kts 333°
2026-04-16 12:51 -8.81569 49.95097 29840 ft 512 kts 333°
2026-04-16 12:51 -8.76080 49.92701 29842 ft 513 kts 333°
2026-04-16 12:52 -8.69489 49.89824 29843 ft 513 kts 333°
2026-04-16 12:52 -8.62931 49.86963 29840 ft 513 kts 333°
2026-04-16 12:53 -8.56380 49.84106 29836 ft 513 kts 333°
2026-04-16 12:53 -8.49788 49.81232 29852 ft 512 kts 333°
2026-04-16 12:54 -8.43231 49.78374 29834 ft 512 kts 333°
2026-04-16 12:54 -8.36695 49.75527 29832 ft 511 kts 333°
2026-04-16 12:55 -8.30170 49.72686 29838 ft 511 kts 333°
2026-04-16 12:55 -8.23598 49.69825 29849 ft 510 kts 333°
2026-04-16 12:56 -8.17029 49.66966 29843 ft 510 kts 333°
2026-04-16 12:56 -8.10469 49.64112 29829 ft 510 kts 333°
2026-04-16 12:57 -8.03948 49.61277 29846 ft 510 kts 333°
2026-04-16 12:57 -7.97423 49.58440 29842 ft 510 kts 333°
2026-04-16 12:58 -7.90895 49.55603 29831 ft 511 kts 333°
2026-04-16 12:58 -7.84363 49.52766 29843 ft 511 kts 333°
2026-04-16 12:59 -7.77815 49.49922 29837 ft 512 kts 333°
2026-04-16 13:00 -7.67962 49.45645 29833 ft 513 kts 333°
2026-04-16 13:00 -7.61394 49.42796 29842 ft 513 kts 333°
2026-04-16 13:01 -7.54832 49.39949 29827 ft 514 kts 334°
2026-04-16 13:01 -7.48163 49.37058 29832 ft 515 kts 334°
2026-04-16 13:02 -7.41485 49.34163 29835 ft 516 kts 334°
2026-04-16 13:02 -7.34871 49.31297 29825 ft 517 kts 334°
2026-04-16 13:03 -7.28126 49.28375 29830 ft 517 kts 334°
2026-04-16 13:03 -7.21466 49.25492 29835 ft 517 kts 334°
2026-04-16 13:04 -7.14851 49.22628 29841 ft 517 kts 334°
2026-04-16 13:04 -7.08236 49.19765 29833 ft 517 kts 334°
2026-04-16 13:05 -7.02710 49.17373 29828 ft 516 kts 334°
2026-04-16 13:05 -6.96063 49.14499 29832 ft 516 kts 334°
2026-04-16 13:06 -6.89428 49.11629 29837 ft 516 kts 334°
2026-04-16 13:06 -6.82830 49.08775 29839 ft 516 kts 334°
2026-04-16 13:07 -6.76229 49.05920 29834 ft 516 kts 334°
2026-04-16 13:07 -6.69578 49.03043 29836 ft 517 kts 334°
2026-04-16 13:08 -6.62875 49.00146 29832 ft 517 kts 334°
2026-04-16 13:08 -6.56259 48.97287 29836 ft 517 kts 334°
2026-04-16 13:09 -6.49616 48.94418 29834 ft 516 kts 334°
2026-04-16 13:09 -6.43010 48.91565 29830 ft 516 kts 335°
2026-04-16 13:10 -6.36429 48.88724 29832 ft 515 kts 335°
2026-04-16 13:10 -6.29790 48.85858 29830 ft 515 kts 335°
2026-04-16 13:11 -6.23214 48.83021 29830 ft 515 kts 335°
2026-04-16 13:11 -6.16620 48.80176 29833 ft 515 kts 335°
2026-04-16 13:12 -6.10026 48.77333 29836 ft 516 kts 335°
2026-04-16 13:12 -6.03373 48.74464 29833 ft 517 kts 335°
2026-04-16 13:13 -5.96802 48.71632 29834 ft 517 kts 335°
2026-04-16 13:13 -5.90166 48.68772 29829 ft 517 kts 335°
2026-04-16 13:14 -5.83537 48.65916 29834 ft 517 kts 336°
2026-04-16 13:14 -5.76921 48.63067 29837 ft 516 kts 336°
2026-04-16 13:15 -5.70273 48.60205 29834 ft 515 kts 336°
2026-04-16 13:15 -5.63587 48.57326 29830 ft 515 kts 336°
2026-04-16 13:16 -5.56964 48.54476 29834 ft 514 kts 336°
2026-04-16 13:16 -5.50264 48.51593 29835 ft 514 kts 336°
2026-04-16 13:17 -5.43683 48.48763 29835 ft 514 kts 336°
2026-04-16 13:17 -5.38101 48.46362 29827 ft 514 kts 336°
2026-04-16 13:18 -5.31432 48.43495 29826 ft 514 kts 336°
2026-04-16 13:18 -5.24869 48.40673 29830 ft 513 kts 336°
2026-04-16 13:19 -5.18315 48.37856 29831 ft 512 kts 336°
2026-04-16 13:19 -5.11758 48.35039 29826 ft 511 kts 336°
2026-04-16 13:20 -5.05184 48.32215 29827 ft 510 kts 336°
2026-04-16 13:20 -4.98669 48.29417 29831 ft 509 kts 336°
2026-04-16 13:21 -4.92122 48.26606 29830 ft 508 kts 336°
2026-04-16 13:21 -4.85621 48.23815 29834 ft 508 kts 336°
2026-04-16 13:22 -4.79113 48.21022 29833 ft 509 kts 336°
2026-04-16 13:22 -4.72590 48.18223 29832 ft 510 kts 336°
2026-04-16 13:23 -4.66059 48.15420 29833 ft 511 kts 336°
2026-04-16 13:23 -4.59529 48.12619 29826 ft 511 kts 336°
2026-04-16 13:24 -4.52924 48.09786 29829 ft 511 kts 336°
2026-04-16 13:24 -4.46396 48.06987 29822 ft 511 kts 336°
2026-04-16 13:25 -4.39853 48.04182 29830 ft 511 kts 336°
2026-04-16 13:25 -4.33276 48.01362 29834 ft 510 kts 336°
2026-04-16 13:26 -4.26750 47.98565 29833 ft 510 kts 336°
2026-04-16 13:26 -4.20138 47.95732 29833 ft 510 kts 336°
2026-04-16 13:27 -4.13524 47.92896 29831 ft 510 kts 336°
2026-04-16 13:27 -4.06994 47.90094 29827 ft 510 kts 336°
2026-04-16 13:28 -4.00381 47.87257 29831 ft 510 kts 336°
2026-04-16 13:28 -3.93802 47.84435 29832 ft 510 kts 336°
2026-04-16 13:29 -3.87267 47.81632 29830 ft 510 kts 336°
2026-04-16 13:29 -3.80701 47.78816 29829 ft 510 kts 336°
2026-04-16 13:30 -3.75268 47.76487 29830 ft 510 kts 336°
2026-04-16 13:30 -3.68694 47.73669 29832 ft 510 kts 336°
2026-04-16 13:31 -3.62082 47.70835 29836 ft 510 kts 336°
2026-04-16 13:31 -3.55555 47.68038 29831 ft 510 kts 336°
2026-04-16 13:32 -3.48996 47.65228 29831 ft 510 kts 336°
2026-04-16 13:32 -3.42436 47.62417 29832 ft 509 kts 336°
2026-04-16 13:33 -3.35974 47.59649 29834 ft 509 kts 336°
2026-04-16 13:33 -3.29400 47.56834 29833 ft 509 kts 336°
2026-04-16 13:34 -3.22840 47.54024 29830 ft 509 kts 336°
2026-04-16 13:34 -3.16334 47.51239 29831 ft 509 kts 336°
2026-04-16 13:35 -3.09731 47.48411 29830 ft 509 kts 336°
2026-04-16 13:35 -3.03217 47.45622 29830 ft 509 kts 336°
2026-04-16 13:36 -2.96696 47.42833 29836 ft 509 kts 336°
2026-04-16 13:36 -2.90192 47.40053 29833 ft 509 kts 336°
2026-04-16 13:37 -2.83674 47.37267 29831 ft 509 kts 336°
2026-04-16 13:37 -2.77168 47.34485 29833 ft 508 kts 336°
2026-04-16 13:38 -2.70654 47.31699 29833 ft 508 kts 336°
2026-04-16 13:38 -2.64103 47.28899 29831 ft 508 kts 336°
2026-04-16 13:39 -2.57597 47.26118 29837 ft 508 kts 336°
2026-04-16 13:39 -2.51058 47.23323 29833 ft 508 kts 336°
2026-04-16 13:40 -2.44520 47.20529 29834 ft 508 kts 336°
2026-04-16 13:40 -2.38016 47.17750 29837 ft 508 kts 336°
2026-04-16 13:41 -2.31472 47.14954 29836 ft 507 kts 336°
2026-04-16 13:41 -2.24929 47.12159 29836 ft 507 kts 336°
2026-04-16 13:42 -2.18398 47.09368 29834 ft 507 kts 336°
2026-04-16 13:42 -2.11855 47.06574 29835 ft 507 kts 336°
2026-04-16 13:43 -2.05370 47.03804 29836 ft 507 kts 336°
2026-04-16 13:43 -1.99961 47.01494 29835 ft 507 kts 336°
2026-04-16 13:44 -1.93461 46.98718 29830 ft 507 kts 336°
2026-04-16 13:44 -1.86923 46.95926 29834 ft 507 kts 336°
2026-04-16 13:45 -1.80441 46.93158 29832 ft 506 kts 336°
2026-04-16 13:45 -1.73961 46.90392 29830 ft 506 kts 336°
2026-04-16 13:46 -1.67483 46.87626 29834 ft 506 kts 336°
2026-04-16 13:46 -1.60960 46.84841 29835 ft 506 kts 336°
2026-04-16 13:47 -1.54479 46.82075 29834 ft 506 kts 336°
2026-04-16 13:47 -1.47995 46.79308 29925 ft 508 kts 336°
2026-04-16 13:47 -1.44695 46.77899 30192 ft 508 kts 335°
2026-04-16 13:48 -1.41457 46.76517 30510 ft 505 kts 335°
2026-04-16 13:48 -1.38263 46.75154 30834 ft 504 kts 335°
2026-04-16 13:48 -1.34998 46.73761 31141 ft 502 kts 335°
2026-04-16 13:48 -1.31796 46.72395 31428 ft 502 kts 335°
2026-04-16 13:49 -1.28536 46.71003 31690 ft 502 kts 335°
2026-04-16 13:49 -1.22062 46.68239 31813 ft 504 kts 335°
2026-04-16 13:50 -1.15621 46.65490 31826 ft 502 kts 335°
2026-04-16 13:50 -1.09162 46.62736 31827 ft 500 kts 335°
2026-04-16 13:51 -1.02718 46.59994 31830 ft 500 kts 335°
2026-04-16 13:51 -0.96353 46.57284 31828 ft 500 kts 335°
2026-04-16 13:52 -0.89865 46.54521 31828 ft 501 kts 335°
2026-04-16 13:52 -0.83394 46.51765 31826 ft 502 kts 335°
2026-04-16 13:53 -0.76925 46.49010 31830 ft 502 kts 335°
2026-04-16 13:53 -0.70492 46.46271 31827 ft 503 kts 335°
2026-04-16 13:54 -0.63916 46.43471 31829 ft 503 kts 335°
2026-04-16 13:54 -0.57350 46.40675 31830 ft 503 kts 335°
2026-04-16 13:55 -0.51929 46.38366 31832 ft 503 kts 335°
2026-04-16 13:55 -0.45491 46.35625 31832 ft 502 kts 335°
2026-04-16 13:56 -0.39003 46.32862 31829 ft 502 kts 335°
2026-04-16 13:56 -0.32527 46.30104 31831 ft 502 kts 335°
2026-04-16 13:57 -0.26101 46.27368 31827 ft 502 kts 335°
2026-04-16 13:57 -0.19658 46.24624 31827 ft 502 kts 335°
2026-04-16 13:58 -0.09963 46.20408 31824 ft 502 kts 334°
2026-04-16 13:58 -0.03580 46.17596 31827 ft 502 kts 334°
2026-04-16 13:59 0.02821 46.14786 31827 ft 502 kts 334°
2026-04-16 13:59 0.09226 46.11979 31826 ft 502 kts 334°
2026-04-16 14:00 0.15610 46.09182 31827 ft 502 kts 334°
2026-04-16 14:00 0.22045 46.06363 31828 ft 501 kts 334°
2026-04-16 14:01 0.28479 46.03544 31826 ft 501 kts 334°
2026-04-16 14:01 0.34866 46.00745 31829 ft 501 kts 334°
2026-04-16 14:02 0.41262 45.97942 31824 ft 501 kts 334°
2026-04-16 14:02 0.47691 45.95124 31821 ft 501 kts 334°
2026-04-16 14:03 0.54203 45.92270 31828 ft 501 kts 334°
2026-04-16 14:03 0.60588 45.89498 31827 ft 501 kts 335°
2026-04-16 14:04 0.67037 45.86737 31823 ft 501 kts 335°
2026-04-16 14:04 0.73447 45.83993 31821 ft 501 kts 335°
2026-04-16 14:05 0.79934 45.81210 31826 ft 500 kts 335°
2026-04-16 14:05 0.86321 45.78465 31823 ft 500 kts 335°
2026-04-16 14:06 0.91780 45.76120 31824 ft 500 kts 335°
2026-04-16 14:06 0.98236 45.73346 31824 ft 500 kts 335°
2026-04-16 14:07 1.04672 45.70580 31822 ft 500 kts 335°
2026-04-16 14:07 1.11154 45.67795 31824 ft 500 kts 335°
2026-04-16 14:08 1.17584 45.65033 31825 ft 500 kts 335°
2026-04-16 14:08 1.23977 45.62285 31825 ft 500 kts 335°
2026-04-16 14:09 1.30411 45.59520 31826 ft 500 kts 335°
2026-04-16 14:09 1.36802 45.56774 31823 ft 500 kts 335°
2026-04-16 14:10 1.43184 45.54031 31826 ft 499 kts 335°
2026-04-16 14:10 1.49652 45.51251 31819 ft 499 kts 335°
2026-04-16 14:11 1.56127 45.48468 31822 ft 499 kts 335°
2026-04-16 14:11 1.62499 45.45729 31819 ft 499 kts 335°
2026-04-16 14:12 1.68939 45.42960 31818 ft 499 kts 335°
2026-04-16 14:12 1.75237 45.40252 31813 ft 499 kts 335°
2026-04-16 14:13 1.81717 45.37466 31810 ft 499 kts 335°
2026-04-16 14:13 1.88234 45.34663 31807 ft 499 kts 335°
2026-04-16 14:14 1.93795 45.32271 31801 ft 500 kts 335°
2026-04-16 14:14 2.00224 45.29506 31803 ft 500 kts 335°
2026-04-16 14:15 2.06630 45.26705 31803 ft 499 kts 334°
2026-04-16 14:15 2.13033 45.23857 31806 ft 499 kts 334°
2026-04-16 14:16 2.19379 45.21033 31807 ft 499 kts 334°
2026-04-16 14:16 2.25717 45.18222 31814 ft 499 kts 334°
2026-04-16 14:17 2.32075 45.15405 31813 ft 499 kts 335°
2026-04-16 14:17 2.38459 45.12577 31809 ft 498 kts 335°
2026-04-16 14:18 2.44839 45.09750 31809 ft 498 kts 335°
2026-04-16 14:18 2.51211 45.06925 31802 ft 497 kts 335°
2026-04-16 14:19 2.57539 45.04121 31803 ft 497 kts 335°
2026-04-16 14:19 2.63895 45.01303 31797 ft 497 kts 335°
2026-04-16 14:20 2.70265 44.98479 31798 ft 496 kts 335°
2026-04-16 14:20 2.76570 44.95683 31795 ft 495 kts 335°
2026-04-16 14:21 2.82954 44.92852 31792 ft 495 kts 335°
2026-04-16 14:21 2.89285 44.90044 31794 ft 495 kts 335°
2026-04-16 14:22 2.95629 44.87230 31796 ft 495 kts 336°
2026-04-16 14:22 3.02013 44.84398 31792 ft 494 kts 336°
2026-04-16 14:23 3.07535 44.81948 31795 ft 495 kts 336°
2026-04-16 14:23 3.13826 44.79157 31800 ft 495 kts 336°
2026-04-16 14:24 3.20177 44.76338 31802 ft 496 kts 336°
2026-04-16 14:24 3.26529 44.73519 31804 ft 496 kts 336°
2026-04-16 14:25 3.32847 44.70715 31809 ft 497 kts 336°
2026-04-16 14:25 3.39253 44.67870 31812 ft 497 kts 335°
2026-04-16 14:26 3.45605 44.65050 31807 ft 498 kts 335°
2026-04-16 14:26 3.51643 44.62369 31813 ft 498 kts 335°
2026-04-16 14:27 3.58196 44.59458 31817 ft 499 kts 335°
2026-04-16 14:27 3.64580 44.56622 31814 ft 499 kts 335°
2026-04-16 14:28 3.71100 44.53725 31813 ft 499 kts 335°
2026-04-16 14:28 3.77529 44.50868 31813 ft 499 kts 335°
2026-04-16 14:29 3.83906 44.48034 31811 ft 499 kts 335°
2026-04-16 14:29 3.89431 44.45578 31811 ft 498 kts 335°
2026-04-16 14:30 3.95742 44.42772 31810 ft 498 kts 335°
2026-04-16 14:30 4.02105 44.39943 31811 ft 497 kts 335°
2026-04-16 14:31 4.08487 44.37105 31810 ft 497 kts 335°
2026-04-16 14:31 4.14807 44.34293 31809 ft 497 kts 335°
2026-04-16 14:32 4.21133 44.31479 31809 ft 497 kts 335°
2026-04-16 14:32 4.27451 44.28668 31808 ft 497 kts 335°
2026-04-16 14:33 4.33779 44.25851 31812 ft 498 kts 335°
2026-04-16 14:33 4.40102 44.23037 31808 ft 498 kts 335°
2026-04-16 14:34 4.46487 44.20194 31810 ft 498 kts 335°
2026-04-16 14:34 4.52827 44.17370 31806 ft 499 kts 335°
2026-04-16 14:35 4.59229 44.14519 31806 ft 499 kts 335°
2026-04-16 14:35 4.65607 44.11678 31802 ft 498 kts 335°
2026-04-16 14:36 4.71983 44.08836 31801 ft 498 kts 335°
2026-04-16 14:36 4.78358 44.05995 31798 ft 498 kts 335°
2026-04-16 14:37 4.84734 44.03152 31801 ft 498 kts 335°
2026-04-16 14:37 4.91239 44.00251 31792 ft 498 kts 335°
2026-04-16 14:38 4.97646 43.97363 31793 ft 498 kts 334°
2026-04-16 14:38 5.03008 43.94919 31796 ft 498 kts 334°
2026-04-16 14:39 5.09312 43.92045 31793 ft 498 kts 334°
2026-04-16 14:39 5.15705 43.89136 31792 ft 498 kts 334°
2026-04-16 14:40 5.21970 43.86286 31795 ft 497 kts 334°
2026-04-16 14:40 5.28340 43.83388 31794 ft 497 kts 334°
2026-04-16 14:41 5.34752 43.80471 31798 ft 498 kts 334°
2026-04-16 14:41 5.41101 43.77581 31795 ft 498 kts 334°
2026-04-16 14:42 5.47464 43.74684 31792 ft 498 kts 334°
2026-04-16 14:42 5.53780 43.71807 31792 ft 499 kts 334°
2026-04-16 14:43 5.60111 43.68923 31794 ft 499 kts 334°
2026-04-16 14:43 5.66478 43.66021 31791 ft 500 kts 335°
2026-04-16 14:44 5.72891 43.63106 31792 ft 500 kts 335°
2026-04-16 14:44 5.79285 43.60206 31795 ft 500 kts 335°
2026-04-16 14:45 5.85714 43.57288 31791 ft 500 kts 335°
2026-04-16 14:45 5.92192 43.54345 31791 ft 501 kts 335°
2026-04-16 14:46 5.97598 43.51888 31792 ft 501 kts 335°
2026-04-16 14:46 6.03993 43.48981 31792 ft 501 kts 335°
2026-04-16 14:47 6.10379 43.46077 31792 ft 501 kts 335°
2026-04-16 14:47 6.16744 43.43182 31794 ft 501 kts 335°
2026-04-16 14:48 6.23185 43.40252 31799 ft 501 kts 335°
2026-04-16 14:48 6.29619 43.37324 31797 ft 501 kts 335°
2026-04-16 14:49 6.36072 43.34387 31806 ft 501 kts 335°
2026-04-16 14:49 6.42385 43.31513 31805 ft 501 kts 335°
2026-04-16 14:50 6.48823 43.28581 31809 ft 501 kts 335°
2026-04-16 14:50 6.55213 43.25669 31811 ft 501 kts 335°
2026-04-16 14:51 6.61643 43.22739 31813 ft 501 kts 335°
2026-04-16 14:51 6.68112 43.19791 31819 ft 500 kts 335°
2026-04-16 14:53 6.92757 43.08547 31820 ft 500 kts 335°
2026-04-16 14:54 6.99100 43.05653 31830 ft 500 kts 335°
2026-04-16 14:54 7.05487 43.02749 31832 ft 500 kts 335°
2026-04-16 14:55 7.11829 42.99865 31829 ft 501 kts 335°
2026-04-16 14:55 7.18192 42.96970 31837 ft 501 kts 335°
2026-04-16 14:56 7.24545 42.94077 31835 ft 501 kts 335°
2026-04-16 14:56 7.30903 42.91180 31844 ft 501 kts 335°
2026-04-16 14:57 7.37247 42.88289 31846 ft 501 kts 335°
2026-04-16 14:57 7.43608 42.85390 31845 ft 500 kts 335°
2026-04-16 14:58 7.53161 42.81034 31841 ft 500 kts 335°
2026-04-16 14:59 7.59506 42.78139 31847 ft 500 kts 335°
2026-04-16 14:59 7.65838 42.75249 31850 ft 500 kts 335°
2026-04-16 15:00 7.72211 42.72340 31850 ft 500 kts 335°
2026-04-16 15:00 7.78547 42.69447 31853 ft 499 kts 335°
2026-04-16 15:01 7.84873 42.66557 31855 ft 499 kts 335°
2026-04-16 15:01 7.91264 42.63637 31857 ft 500 kts 335°
2026-04-16 15:02 7.97684 42.60702 31863 ft 500 kts 335°
2026-04-16 15:02 8.04064 42.57785 31865 ft 500 kts 335°
2026-04-16 15:03 8.10444 42.54865 31867 ft 499 kts 335°
2026-04-16 15:03 8.16856 42.51931 31877 ft 499 kts 334°
2026-04-16 15:04 8.23177 42.49037 31880 ft 498 kts 335°
2026-04-16 15:04 8.28498 42.46603 31875 ft 497 kts 334°
2026-04-16 15:05 8.34894 42.43676 31881 ft 496 kts 334°
2026-04-16 15:05 8.41206 42.40786 31879 ft 496 kts 334°
2026-04-16 15:06 8.47529 42.37896 31882 ft 495 kts 334°
2026-04-16 15:06 8.53861 42.35010 31882 ft 495 kts 335°
2026-04-16 15:07 8.60142 42.32146 31879 ft 496 kts 335°
2026-04-16 15:07 8.66438 42.29273 31885 ft 497 kts 335°
2026-04-16 15:08 8.72787 42.26373 31885 ft 498 kts 335°
2026-04-16 15:08 8.79153 42.23464 31886 ft 499 kts 334°
2026-04-16 15:09 8.85516 42.20554 31891 ft 499 kts 334°
2026-04-16 15:09 8.91901 42.17636 31889 ft 500 kts 335°
2026-04-16 15:10 8.98286 42.14715 31896 ft 500 kts 335°
2026-04-16 15:10 9.04669 42.11794 31907 ft 500 kts 334°
2026-04-16 15:11 9.11105 42.08848 31911 ft 500 kts 334°
2026-04-16 15:11 9.17429 42.05952 31921 ft 499 kts 334°
2026-04-16 15:12 9.23802 42.03031 31923 ft 499 kts 335°
2026-04-16 15:12 9.30202 42.00098 31929 ft 498 kts 335°
2026-04-16 15:13 9.36602 41.97163 31933 ft 498 kts 335°
2026-04-16 15:13 9.41980 41.94696 31927 ft 498 kts 335°
2026-04-16 15:14 9.48338 41.91778 31924 ft 498 kts 335°
2026-04-16 15:14 9.54689 41.88863 31908 ft 498 kts 335°
2026-04-16 15:15 9.61053 41.85939 31890 ft 498 kts 335°
2026-04-16 15:15 9.67353 41.82999 31872 ft 498 kts 333°
2026-04-16 15:16 9.73594 41.79852 31855 ft 498 kts 332°
2026-04-16 15:16 9.79808 41.76666 31839 ft 498 kts 333°
2026-04-16 15:17 9.86006 41.73513 31823 ft 498 kts 333°
2026-04-16 15:17 9.92246 41.70362 31817 ft 498 kts 333°
2026-04-16 15:18 9.98452 41.67233 31809 ft 498 kts 333°
2026-04-16 15:18 10.04687 41.64086 31800 ft 497 kts 333°
2026-04-16 15:19 10.10883 41.60957 31797 ft 497 kts 333°
2026-04-16 15:19 10.17128 41.57800 31792 ft 497 kts 333°
2026-04-16 15:20 10.23315 41.54672 31793 ft 497 kts 333°
2026-04-16 15:20 10.29541 41.51523 31788 ft 497 kts 333°
2026-04-16 15:21 10.35767 41.48372 31786 ft 497 kts 333°
2026-04-16 15:21 10.41994 41.45220 31784 ft 496 kts 333°
2026-04-16 15:22 10.48182 41.42085 31780 ft 496 kts 333°
2026-04-16 15:22 10.54401 41.38934 31781 ft 496 kts 333°
2026-04-16 15:23 10.59684 41.36256 31778 ft 496 kts 333°
2026-04-16 15:23 10.66093 41.33005 31778 ft 496 kts 333°
2026-04-16 15:24 10.72311 41.29851 31779 ft 496 kts 333°
2026-04-16 15:24 10.78480 41.26719 31775 ft 496 kts 333°
2026-04-16 15:25 10.84654 41.23584 31774 ft 495 kts 333°
2026-04-16 15:25 10.90859 41.20431 31771 ft 495 kts 333°
2026-04-16 15:26 10.97023 41.17297 31770 ft 495 kts 333°
2026-04-16 15:26 11.03219 41.14146 31775 ft 495 kts 333°
2026-04-16 15:27 11.09432 41.10985 31775 ft 495 kts 332°
2026-04-16 15:27 11.15668 41.07811 31777 ft 494 kts 332°
2026-04-16 15:28 11.21821 41.04677 31774 ft 494 kts 332°
2026-04-16 15:28 11.28001 41.01528 31769 ft 494 kts 332°
2026-04-16 15:29 11.34316 40.98309 31776 ft 493 kts 332°
2026-04-16 15:29 11.40542 40.95133 31775 ft 493 kts 332°
2026-04-16 15:30 11.46717 40.91982 31780 ft 493 kts 332°
2026-04-16 15:30 11.51870 40.89351 31784 ft 492 kts 332°
2026-04-16 15:31 11.58058 40.86191 31780 ft 492 kts 332°
2026-04-16 15:31 11.64349 40.82976 31783 ft 492 kts 332°
2026-04-16 15:32 11.70518 40.79822 31785 ft 492 kts 332°
2026-04-16 15:32 11.76634 40.76693 31790 ft 492 kts 332°
2026-04-16 15:33 11.82794 40.73540 31787 ft 491 kts 332°
2026-04-16 15:33 11.88945 40.70391 31791 ft 491 kts 332°
2026-04-16 15:34 11.95051 40.67263 31791 ft 491 kts 332°
2026-04-16 15:34 12.01199 40.64111 31796 ft 491 kts 332°
2026-04-16 15:35 12.07339 40.60962 31795 ft 490 kts 332°
2026-04-16 15:35 12.13602 40.57749 31792 ft 490 kts 332°
2026-04-16 15:36 12.19726 40.54605 31788 ft 490 kts 332°
2026-04-16 15:36 12.25894 40.51436 31790 ft 489 kts 332°
2026-04-16 15:37 12.31068 40.48776 31785 ft 489 kts 332°
2026-04-16 15:37 12.37224 40.45611 31785 ft 489 kts 332°
2026-04-16 15:38 12.43357 40.42455 31779 ft 489 kts 331°
2026-04-16 15:38 12.49129 40.38837 31790 ft 486 kts 323°
2026-04-16 15:39 12.54606 40.34773 31789 ft 486 kts 322°
2026-04-16 15:39 12.60071 40.30713 31782 ft 486 kts 323°
2026-04-16 15:40 12.65597 40.26640 31793 ft 486 kts 323°
2026-04-16 15:40 12.71173 40.22546 31798 ft 486 kts 323°
2026-04-16 15:41 12.76736 40.18463 31807 ft 486 kts 323°
2026-04-16 15:41 12.82237 40.14422 31812 ft 485 kts 323°
2026-04-16 15:42 12.87721 40.10389 31822 ft 485 kts 322°
2026-04-16 15:42 12.93276 40.06302 31834 ft 485 kts 322°
2026-04-16 15:43 12.98790 40.02244 31852 ft 485 kts 322°
2026-04-16 15:43 13.04282 39.98197 31862 ft 485 kts 322°
2026-04-16 15:44 13.09803 39.94128 31868 ft 486 kts 322°
2026-04-16 15:44 13.15393 39.90007 31867 ft 487 kts 322°
2026-04-16 15:45 13.20911 39.85936 31896 ft 486 kts 322°
2026-04-16 15:45 13.26427 39.81864 31913 ft 485 kts 322°
2026-04-16 15:46 13.31066 39.78438 31915 ft 485 kts 322°
2026-04-16 15:46 13.36602 39.74345 31929 ft 484 kts 322°
2026-04-16 15:47 13.42147 39.70245 31938 ft 484 kts 322°
2026-04-16 15:47 13.47615 39.66201 31946 ft 483 kts 322°
2026-04-16 15:48 13.53064 39.62167 31962 ft 483 kts 322°
2026-04-16 15:48 13.58517 39.58127 31965 ft 483 kts 322°
2026-04-16 15:49 13.63970 39.54085 31952 ft 483 kts 322°
2026-04-16 15:49 13.69418 39.50046 31969 ft 483 kts 322°
2026-04-16 15:50 13.74916 39.45965 31966 ft 483 kts 322°
2026-04-16 15:50 13.80370 39.41916 31966 ft 483 kts 322°
2026-04-16 15:51 13.85820 39.37867 31947 ft 483 kts 322°
2026-04-16 15:51 13.91283 39.33806 31960 ft 484 kts 322°
2026-04-16 15:52 13.96757 39.29735 31956 ft 485 kts 322°
2026-04-16 15:52 14.02299 39.25610 31950 ft 485 kts 322°
2026-04-16 15:53 14.07808 39.21508 31946 ft 486 kts 322°
2026-04-16 15:53 14.13287 39.17426 31943 ft 486 kts 322°
2026-04-16 15:54 14.18729 39.13368 31938 ft 486 kts 322°
2026-04-16 15:54 14.24254 39.09245 31926 ft 487 kts 322°
2026-04-16 15:55 14.29818 39.05091 31901 ft 487 kts 322°
2026-04-16 15:55 14.35395 39.00925 31907 ft 487 kts 322°
2026-04-16 15:56 14.40989 38.96743 31895 ft 488 kts 322°
2026-04-16 15:56 14.46604 38.92636 31867 ft 489 kts 327°
2026-04-16 15:57 14.51957 38.90443 31886 ft 495 kts 344°
2026-04-16 15:57 14.58998 38.89815 31885 ft 501 kts 358°
2026-04-16 15:58 14.66037 38.89935 31877 ft 503 kts 358°
2026-04-16 15:58 14.73031 38.90023 31877 ft 503 kts 357°
2026-04-16 15:59 14.83692 38.90049 31886 ft 505 kts 357°
2026-04-16 15:59 14.90716 38.90052 31899 ft 505 kts 357°
2026-04-16 16:00 14.97795 38.90059 31908 ft 505 kts 356°
2026-04-16 16:00 15.04961 38.90069 31893 ft 504 kts 356°
2026-04-16 16:01 15.11983 38.90079 31909 ft 503 kts 356°
2026-04-16 16:01 15.19033 38.90088 31900 ft 502 kts 356°
2026-04-16 16:02 15.26093 38.90097 31911 ft 502 kts 356°
2026-04-16 16:02 15.33092 38.90183 31888 ft 502 kts 358°
2026-04-16 16:03 15.40175 38.90461 31887 ft 503 kts 359°
2026-04-16 16:03 15.46162 38.90713 31868 ft 503 kts 358°
2026-04-16 16:04 15.53230 38.90986 31852 ft 503 kts 358°
2026-04-16 16:04 15.60275 38.91242 31838 ft 501 kts 358°
2026-04-16 16:05 15.67267 38.91486 31823 ft 499 kts 358°
2026-04-16 16:05 15.74249 38.91734 31820 ft 498 kts 358°
2026-04-16 16:06 15.81178 38.91981 31799 ft 499 kts 358°
2026-04-16 16:06 15.88123 38.92228 31786 ft 499 kts 358°
2026-04-16 16:07 15.95111 38.92478 31779 ft 499 kts 358°
2026-04-16 16:07 16.02039 38.92727 31770 ft 498 kts 358°
2026-04-16 16:08 16.08945 38.92975 31766 ft 497 kts 358°
2026-04-16 16:08 16.15902 38.93224 31759 ft 496 kts 358°
2026-04-16 16:09 16.22905 38.93475 31757 ft 496 kts 358°
2026-04-16 16:09 16.29802 38.93722 31757 ft 496 kts 358°
2026-04-16 16:10 16.36738 38.93971 31756 ft 496 kts 358°
2026-04-16 16:10 16.43721 38.94222 31757 ft 496 kts 357°
2026-04-16 16:11 16.50711 38.94474 31751 ft 496 kts 357°
2026-04-16 16:11 16.57707 38.94726 31752 ft 495 kts 357°
2026-04-16 16:12 16.63517 38.94935 31750 ft 495 kts 357°
2026-04-16 16:12 16.70484 38.95186 31747 ft 495 kts 357°
2026-04-16 16:13 16.77466 38.95438 31742 ft 494 kts 357°
2026-04-16 16:13 16.84342 38.95686 31743 ft 494 kts 357°
2026-04-16 16:14 16.91213 38.95934 31740 ft 493 kts 357°
2026-04-16 16:14 16.98126 38.96184 31738 ft 493 kts 357°
2026-04-16 16:15 17.05029 38.96433 31736 ft 493 kts 357°
2026-04-16 16:15 17.11943 38.96684 31733 ft 493 kts 357°
2026-04-16 16:16 17.19021 38.96941 31726 ft 493 kts 357°
2026-04-16 16:16 17.25873 38.97189 31728 ft 492 kts 357°
2026-04-16 16:17 17.32722 38.97437 31727 ft 492 kts 357°
2026-04-16 16:17 17.39791 38.97694 31726 ft 491 kts 357°
2026-04-16 16:18 17.46364 38.97933 31723 ft 491 kts 357°
2026-04-16 16:18 17.52145 38.98143 31728 ft 491 kts 357°
2026-04-16 16:19 17.59152 38.98397 31720 ft 490 kts 357°
2026-04-16 16:19 17.66019 38.98647 31715 ft 490 kts 357°
2026-04-16 16:20 17.72818 38.98894 31727 ft 489 kts 356°
2026-04-16 16:20 17.79620 38.99142 31721 ft 489 kts 356°
2026-04-16 16:21 17.86434 38.99390 31718 ft 489 kts 356°
2026-04-16 16:21 17.93236 38.99639 31711 ft 489 kts 356°
2026-04-16 16:22 18.00037 38.99887 31713 ft 488 kts 356°
2026-04-16 16:22 18.06829 39.00135 31704 ft 488 kts 356°
2026-04-16 16:23 18.13667 39.00385 31718 ft 488 kts 356°
2026-04-16 16:23 18.20465 39.00664 31721 ft 489 kts 357°
2026-04-16 16:24 18.27263 39.01046 31708 ft 489 kts 358°
2026-04-16 16:24 18.34182 39.01450 31711 ft 489 kts 358°
2026-04-16 16:25 18.40958 39.01832 31706 ft 489 kts 358°
2026-04-16 16:25 18.47750 39.02207 31715 ft 489 kts 358°
2026-04-16 16:26 18.54586 39.02583 31714 ft 489 kts 357°
2026-04-16 16:26 18.61397 39.02959 31713 ft 489 kts 358°
2026-04-16 16:27 18.68231 39.03337 31711 ft 488 kts 357°
2026-04-16 16:27 18.75106 39.03620 31712 ft 487 kts 356°
2026-04-16 16:28 18.81912 39.03785 31717 ft 486 kts 355°
2026-04-16 16:28 18.88723 39.03954 31716 ft 486 kts 356°
2026-04-16 16:29 18.95538 39.04143 31717 ft 486 kts 356°
2026-04-16 16:29 19.02297 39.04340 31719 ft 485 kts 356°
2026-04-16 16:30 19.08042 39.04508 31717 ft 485 kts 356°
2026-04-16 16:30 19.14780 39.04705 31722 ft 485 kts 356°
2026-04-16 16:31 19.21577 39.04903 31721 ft 485 kts 356°
2026-04-16 16:31 19.28368 39.05102 31722 ft 484 kts 356°
2026-04-16 16:32 19.35145 39.05300 31724 ft 484 kts 356°
2026-04-16 16:32 19.41926 39.05498 31727 ft 484 kts 356°
2026-04-16 16:33 19.48645 39.05694 31725 ft 484 kts 356°
2026-04-16 16:33 19.55528 39.05896 31719 ft 483 kts 356°
2026-04-16 16:34 19.62249 39.06093 31723 ft 483 kts 356°
2026-04-16 16:34 19.69025 39.06291 31733 ft 483 kts 356°
2026-04-16 16:35 19.75752 39.06489 31730 ft 483 kts 356°
2026-04-16 16:35 19.82516 39.06687 31727 ft 483 kts 356°
2026-04-16 16:36 19.89230 39.06885 31727 ft 483 kts 356°
2026-04-16 16:36 19.95963 39.07083 31727 ft 483 kts 356°
2026-04-16 16:37 20.02674 39.07280 31730 ft 483 kts 356°
2026-04-16 16:37 20.09388 39.07478 31730 ft 482 kts 356°
2026-04-16 16:38 20.16079 39.07675 31727 ft 482 kts 356°
2026-04-16 16:38 20.22857 39.07875 31731 ft 482 kts 356°
2026-04-16 16:39 20.29561 39.08073 31727 ft 482 kts 356°
2026-04-16 16:39 20.36300 39.08273 31733 ft 481 kts 356°
2026-04-16 16:40 20.43080 39.08473 31731 ft 481 kts 356°
2026-04-16 16:40 20.49778 39.08672 31733 ft 481 kts 356°
2026-04-16 16:41 20.56554 39.08872 31731 ft 481 kts 356°
2026-04-16 16:41 20.62169 39.09039 31735 ft 481 kts 356°
2026-04-16 16:42 20.69994 39.09271 31733 ft 481 kts 356°
2026-04-16 16:42 20.75605 39.09438 31737 ft 482 kts 356°
2026-04-16 16:43 20.82394 39.09640 31736 ft 482 kts 356°
2026-04-16 16:43 20.89093 39.09840 31732 ft 482 kts 356°
2026-04-16 16:44 20.95800 39.10040 31741 ft 482 kts 356°
2026-04-16 16:44 21.02514 39.10240 31742 ft 482 kts 356°
2026-04-16 16:45 21.09346 39.10444 31739 ft 482 kts 356°
2026-04-16 16:45 21.16146 39.10647 31739 ft 482 kts 356°
2026-04-16 16:46 21.22850 39.10848 31729 ft 482 kts 356°
2026-04-16 16:46 21.29559 39.11049 31731 ft 482 kts 356°
2026-04-16 16:47 21.36306 39.11251 31716 ft 482 kts 356°
2026-04-16 16:47 21.42993 39.11451 31709 ft 482 kts 356°
2026-04-16 16:48 21.49697 39.11653 31701 ft 481 kts 355°
2026-04-16 16:48 21.56394 39.11854 31699 ft 481 kts 355°
2026-04-16 16:49 21.63084 39.12056 31692 ft 481 kts 355°
2026-04-16 16:49 21.69761 39.11840 31696 ft 472 kts 346°
2026-04-16 16:50 21.76085 39.10240 31697 ft 464 kts 335°
2026-04-16 16:50 21.82060 39.07658 31701 ft 462 kts 333°
2026-04-16 16:51 21.88030 39.04986 31704 ft 462 kts 333°
2026-04-16 16:51 21.94045 39.02325 31710 ft 463 kts 333°
2026-04-16 16:52 22.00068 38.99684 31722 ft 463 kts 333°
2026-04-16 16:52 22.06147 38.97022 31719 ft 463 kts 333°
2026-04-16 16:53 22.12085 38.94419 31717 ft 463 kts 333°
2026-04-16 16:53 22.18060 38.91797 31723 ft 462 kts 333°
2026-04-16 16:54 22.24013 38.89181 31726 ft 462 kts 333°
2026-04-16 16:54 22.28996 38.86990 31733 ft 461 kts 333°
2026-04-16 16:55 22.34950 38.84369 31736 ft 461 kts 333°
2026-04-16 16:55 22.40922 38.81738 31738 ft 461 kts 333°
2026-04-16 16:56 22.46952 38.79078 31745 ft 461 kts 333°
2026-04-16 16:56 22.53014 38.76402 31748 ft 461 kts 333°
2026-04-16 16:57 22.62041 38.72412 31749 ft 461 kts 333°
2026-04-16 16:58 22.67946 38.69798 31750 ft 461 kts 333°
2026-04-16 16:58 22.73886 38.67164 31752 ft 462 kts 333°
2026-04-16 16:59 22.79878 38.64503 31755 ft 462 kts 333°
2026-04-16 16:59 22.85861 38.61843 31759 ft 462 kts 333°
2026-04-16 17:00 22.91817 38.59193 31760 ft 462 kts 333°
2026-04-16 17:00 22.97778 38.56538 31763 ft 463 kts 333°
2026-04-16 17:01 23.03778 38.53863 31762 ft 463 kts 333°
2026-04-16 17:01 23.09760 38.51194 31765 ft 464 kts 333°
2026-04-16 17:02 23.15814 38.48490 31766 ft 464 kts 333°
2026-04-16 17:02 23.21939 38.45751 31771 ft 465 kts 333°
2026-04-16 17:03 23.27996 38.43042 31779 ft 465 kts 333°
2026-04-16 17:03 23.33000 38.40799 31774 ft 465 kts 333°
2026-04-16 17:04 23.39115 38.38057 31781 ft 466 kts 333°
2026-04-16 17:04 23.45149 38.35349 31780 ft 467 kts 333°
2026-04-16 17:05 23.51164 38.32647 31775 ft 468 kts 333°
2026-04-16 17:05 23.57270 38.29901 31774 ft 469 kts 333°
2026-04-16 17:06 23.63339 38.27169 31778 ft 469 kts 333°
2026-04-16 17:06 23.69421 38.24435 31777 ft 469 kts 333°
2026-04-16 17:07 23.75548 38.21686 31771 ft 470 kts 333°
2026-04-16 17:07 23.81653 38.18944 31761 ft 470 kts 333°
2026-04-16 17:08 23.87762 38.16195 31771 ft 471 kts 333°
2026-04-16 17:08 23.90792 38.14829 32052 ft 471 kts 332°
2026-04-16 17:08 23.93891 38.13435 32577 ft 466 kts 332°
2026-04-16 17:08 23.96917 38.12073 33160 ft 460 kts 332°
2026-04-16 17:09 23.99897 38.10730 33660 ft 456 kts 331°
2026-04-16 17:09 24.05807 38.08057 33693 ft 456 kts 331°
2026-04-16 17:10 24.10765 38.05817 33695 ft 454 kts 331°
2026-04-16 17:10 24.16560 38.02755 33692 ft 446 kts 323°
2026-04-16 17:11 24.21670 37.98963 33701 ft 443 kts 320°
2026-04-16 17:11 24.26891 37.95004 33705 ft 444 kts 320°
2026-04-16 17:12 24.32070 37.91098 33714 ft 445 kts 320°
2026-04-16 17:12 24.37283 37.87177 33728 ft 445 kts 320°
2026-04-16 17:13 24.42438 37.83298 33749 ft 446 kts 320°
2026-04-16 17:13 24.47588 37.79418 33736 ft 445 kts 320°
2026-04-16 17:14 24.52793 37.75492 33744 ft 445 kts 320°
2026-04-16 17:14 24.57965 37.71588 33753 ft 444 kts 320°
2026-04-16 17:15 24.63063 37.67735 33757 ft 445 kts 320°
2026-04-16 17:15 24.68120 37.63909 33764 ft 445 kts 320°
2026-04-16 17:16 24.72530 37.60570 33771 ft 445 kts 320°
2026-04-16 17:16 24.77747 37.56615 33766 ft 446 kts 320°
2026-04-16 17:17 24.82899 37.52705 33769 ft 447 kts 320°
2026-04-16 17:17 24.88023 37.48814 33773 ft 448 kts 320°
2026-04-16 17:18 24.93182 37.44892 33764 ft 448 kts 320°
2026-04-16 17:18 24.98369 37.40944 33764 ft 449 kts 321°
2026-04-16 17:19 25.03577 37.36976 33771 ft 450 kts 321°
2026-04-16 17:19 25.08731 37.33046 33768 ft 451 kts 321°
2026-04-16 17:20 25.14017 37.29009 33768 ft 453 kts 321°
2026-04-16 17:20 25.18450 37.25621 33772 ft 454 kts 321°
2026-04-16 17:21 25.23900 37.21451 33772 ft 455 kts 321°
2026-04-16 17:21 25.27690 37.18550 33768 ft 456 kts 321°
2026-04-16 17:22 25.32956 37.14508 33769 ft 457 kts 321°
2026-04-16 17:22 25.38577 37.10189 33759 ft 457 kts 320°
2026-04-16 17:23 25.43345 37.06530 33755 ft 457 kts 320°
2026-04-16 17:23 25.48676 37.02448 33751 ft 456 kts 320°
2026-04-16 17:24 25.53927 36.98421 33740 ft 456 kts 320°
2026-04-16 17:24 25.59220 36.94355 33744 ft 455 kts 320°
2026-04-16 17:25 25.64423 36.90353 33783 ft 455 kts 319°
2026-04-16 17:25 25.69656 36.86323 33761 ft 454 kts 319°
2026-04-16 17:26 25.74909 36.82269 33753 ft 453 kts 319°
2026-04-16 17:26 25.79398 36.78789 33758 ft 452 kts 319°
2026-04-16 17:27 25.84618 36.74736 33759 ft 452 kts 319°
2026-04-16 17:27 25.89756 36.70742 33764 ft 453 kts 319°
2026-04-16 17:28 25.95004 36.66661 33757 ft 454 kts 319°
2026-04-16 17:28 26.00254 36.62574 33757 ft 455 kts 319°
2026-04-16 17:29 26.05447 36.58526 33752 ft 456 kts 320°
2026-04-16 17:29 26.10642 36.54472 33750 ft 457 kts 320°
2026-04-16 17:30 26.15849 36.50399 33748 ft 457 kts 319°
2026-04-16 17:30 26.20638 36.45770 33751 ft 450 kts 309°
2026-04-16 17:31 26.25024 36.40667 33753 ft 450 kts 309°
2026-04-16 17:31 26.29351 36.35643 33751 ft 450 kts 309°
2026-04-16 17:32 26.33702 36.30615 33752 ft 450 kts 309°
2026-04-16 17:32 26.38117 36.25520 33757 ft 450 kts 309°
2026-04-16 17:33 26.42472 36.20491 33757 ft 451 kts 309°
2026-04-16 17:33 26.46877 36.15396 33759 ft 451 kts 309°
2026-04-16 17:34 26.51201 36.10388 33762 ft 451 kts 309°
2026-04-16 17:34 26.55619 36.05266 33759 ft 451 kts 309°
2026-04-16 17:35 26.60036 36.00138 33762 ft 451 kts 309°
2026-04-16 17:35 26.64417 35.95046 33765 ft 452 kts 309°
2026-04-16 17:36 26.68169 35.90680 33763 ft 452 kts 309°
2026-04-16 17:36 26.72535 35.85594 33763 ft 452 kts 309°
2026-04-16 17:37 26.76887 35.80519 33766 ft 452 kts 309°
2026-04-16 17:37 26.81449 35.75194 33764 ft 452 kts 309°
2026-04-16 17:38 26.85884 35.70012 33762 ft 452 kts 309°
2026-04-16 17:38 26.90299 35.64847 33768 ft 452 kts 309°
2026-04-16 17:39 26.94642 35.59758 33754 ft 452 kts 309°
2026-04-16 17:39 26.98992 35.54655 33755 ft 452 kts 309°
2026-04-16 17:40 27.03365 35.49519 33758 ft 452 kts 309°
2026-04-16 17:40 27.07718 35.44400 33766 ft 452 kts 309°
2026-04-16 17:41 27.12169 35.39158 33764 ft 453 kts 309°
2026-04-16 17:41 27.15811 35.34866 33763 ft 453 kts 309°
2026-04-16 17:42 27.20161 35.29733 33760 ft 453 kts 309°
2026-04-16 17:42 27.24709 35.24359 33760 ft 453 kts 309°
2026-04-16 17:43 27.29077 35.19193 33758 ft 453 kts 309°
2026-04-16 17:43 27.33413 35.14056 33758 ft 453 kts 309°
2026-04-16 17:44 27.37775 35.08884 33758 ft 453 kts 309°
2026-04-16 17:44 27.42114 35.03731 33753 ft 452 kts 309°
2026-04-16 17:45 27.46459 34.98565 33750 ft 452 kts 309°
2026-04-16 17:45 27.50875 34.93313 33750 ft 452 kts 309°
2026-04-16 17:46 27.55448 34.88340 33753 ft 454 kts 312°
2026-04-16 17:46 27.60141 34.83430 33750 ft 454 kts 312°
2026-04-16 17:47 27.64796 34.78537 33737 ft 454 kts 312°
2026-04-16 17:47 27.69427 34.73636 33747 ft 453 kts 312°
2026-04-16 17:48 27.74024 34.68757 33744 ft 453 kts 312°
2026-04-16 17:48 27.77912 34.64626 33744 ft 453 kts 312°
2026-04-16 17:49 27.82615 34.59624 33740 ft 453 kts 312°
2026-04-16 17:49 27.87199 34.54743 33742 ft 453 kts 311°
2026-04-16 17:50 27.91822 34.49814 33747 ft 452 kts 311°
2026-04-16 17:50 27.96476 34.44849 33748 ft 452 kts 311°
2026-04-16 17:51 28.00980 34.39770 33754 ft 448 kts 306°
2026-04-16 17:51 28.04891 34.34348 33768 ft 447 kts 304°
2026-04-16 17:52 28.08810 34.28876 33779 ft 446 kts 304°
2026-04-16 17:52 28.12759 34.23386 33778 ft 448 kts 305°
2026-04-16 17:53 28.16717 34.17894 33788 ft 447 kts 304°
2026-04-16 17:53 28.20645 34.12440 33782 ft 447 kts 304°
2026-04-16 17:54 28.24592 34.06956 33793 ft 447 kts 304°
2026-04-16 17:54 28.28639 34.01325 33820 ft 446 kts 304°
2026-04-16 17:55 28.32111 33.96486 33800 ft 447 kts 304°
2026-04-16 17:55 28.36054 33.90980 33803 ft 447 kts 304°
2026-04-16 17:56 28.39990 33.85477 33801 ft 448 kts 304°
2026-04-16 17:56 28.45944 33.77144 33805 ft 448 kts 304°
2026-04-16 17:57 28.49874 33.71633 33793 ft 448 kts 304°
2026-04-16 17:57 28.53800 33.66123 33783 ft 448 kts 304°
2026-04-16 17:58 28.57714 33.60614 33780 ft 448 kts 304°
2026-04-16 17:58 28.61701 33.54997 33775 ft 446 kts 304°
2026-04-16 17:59 28.65717 33.49334 33770 ft 444 kts 304°
2026-04-16 17:59 28.69708 33.43710 33759 ft 444 kts 304°
2026-04-16 18:00 28.73583 33.38243 33750 ft 443 kts 304°
2026-04-16 18:00 28.77039 33.33358 33743 ft 443 kts 304°
2026-04-16 18:01 28.81028 33.27710 33747 ft 442 kts 304°
2026-04-16 18:01 28.84960 33.22137 33742 ft 443 kts 304°
2026-04-16 18:02 28.88979 33.16433 33734 ft 443 kts 303°
2026-04-16 18:02 28.92221 33.11826 33729 ft 443 kts 303°
2026-04-16 18:03 28.96152 33.06233 33735 ft 443 kts 303°
2026-04-16 18:03 29.00215 33.00443 33735 ft 443 kts 303°
2026-04-16 18:04 29.04274 32.94652 33728 ft 443 kts 303°
2026-04-16 18:04 29.07655 32.89823 33730 ft 443 kts 303°
2026-04-16 18:05 29.11583 32.84203 33723 ft 443 kts 303°
2026-04-16 18:05 29.15594 32.78458 33724 ft 443 kts 303°
2026-04-16 18:06 29.19562 32.72766 33721 ft 443 kts 303°
2026-04-16 18:06 29.23465 32.67159 33724 ft 443 kts 303°
2026-04-16 18:07 29.26743 32.62445 33724 ft 443 kts 303°
2026-04-16 18:07 29.31041 32.56233 33724 ft 443 kts 302°
2026-04-16 18:08 29.35041 32.50398 33726 ft 443 kts 302°
2026-04-16 18:08 29.38242 32.45721 33727 ft 443 kts 302°
2026-04-16 18:09 29.42242 32.39871 33728 ft 443 kts 302°
2026-04-16 18:09 29.46144 32.34162 33738 ft 443 kts 302°
2026-04-16 18:10 29.49563 32.29153 33740 ft 444 kts 302°
2026-04-16 18:10 29.53527 32.23338 33741 ft 444 kts 302°
2026-04-16 18:11 29.57414 32.17627 33724 ft 445 kts 302°
2026-04-16 18:11 29.61329 32.11868 33730 ft 445 kts 302°
2026-04-16 18:12 29.65184 32.06189 33746 ft 444 kts 302°
2026-04-16 18:12 29.68978 32.00591 33731 ft 444 kts 302°
2026-04-16 18:13 29.72220 31.95800 33729 ft 445 kts 302°
2026-04-16 18:13 29.76397 31.89621 33730 ft 445 kts 302°
2026-04-16 18:14 29.80205 31.83915 33726 ft 445 kts 301°
2026-04-16 18:14 29.83901 31.78147 33723 ft 444 kts 300°
2026-04-16 18:15 29.87622 31.72335 33715 ft 445 kts 300°
2026-04-16 18:15 29.91497 31.66308 33711 ft 444 kts 300°
2026-04-16 18:16 29.94711 31.61323 33707 ft 444 kts 300°
2026-04-16 18:16 29.98648 31.55220 33702 ft 444 kts 300°
2026-04-16 18:17 30.02557 31.49147 33694 ft 443 kts 300°
2026-04-16 18:17 30.06046 31.43718 33694 ft 443 kts 300°
2026-04-16 18:18 30.09689 31.38376 33687 ft 447 kts 305°
2026-04-16 18:18 30.14128 31.33432 33665 ft 452 kts 310°
2026-04-16 18:19 30.18815 31.28466 33675 ft 451 kts 309°
2026-04-16 18:19 30.23498 31.23471 33680 ft 450 kts 309°
2026-04-16 18:20 30.27375 31.19309 33679 ft 449 kts 309°
2026-04-16 18:20 30.32292 31.14015 33683 ft 449 kts 309°
2026-04-16 18:21 30.36926 31.09017 33686 ft 449 kts 309°
2026-04-16 18:21 30.41562 31.04011 33690 ft 450 kts 309°
2026-04-16 18:22 30.46233 30.98961 33690 ft 450 kts 309°
2026-04-16 18:22 30.50840 30.93975 33683 ft 450 kts 309°
2026-04-16 18:23 30.55524 30.88898 33686 ft 451 kts 309°
2026-04-16 18:23 30.60140 30.83888 33688 ft 451 kts 309°
2026-04-16 18:24 30.64737 30.78891 33688 ft 451 kts 308°
2026-04-16 18:24 30.68605 30.74681 33687 ft 451 kts 308°
2026-04-16 18:25 30.73252 30.69617 33686 ft 452 kts 308°
2026-04-16 18:25 30.77889 30.64558 33688 ft 452 kts 308°
2026-04-16 18:26 30.82704 30.59295 33683 ft 452 kts 308°
2026-04-16 18:26 30.87364 30.54196 33679 ft 453 kts 308°
2026-04-16 18:27 30.91944 30.49177 33682 ft 453 kts 308°
2026-04-16 18:27 30.96574 30.44095 33685 ft 453 kts 308°
2026-04-16 18:28 31.01191 30.39021 33686 ft 454 kts 308°
2026-04-16 18:28 31.05795 30.33911 33685 ft 451 kts 304°
2026-04-16 18:29 31.07761 30.31076 33683 ft 440 kts 296°
2026-04-16 18:29 31.09356 30.28048 33690 ft 434 kts 291°
2026-04-16 18:29 31.11657 30.21577 33685 ft 424 kts 281°
2026-04-16 18:30 31.13427 30.14881 33676 ft 425 kts 281°
2026-04-16 18:30 31.14914 30.09353 33672 ft 427 kts 281°
2026-04-16 18:31 31.16730 30.02702 33668 ft 428 kts 281°
2026-04-16 18:31 31.18947 29.96097 33677 ft 436 kts 289°
2026-04-16 18:32 31.21700 29.90381 33661 ft 443 kts 295°
2026-04-16 18:32 31.23990 29.86637 33663 ft 446 kts 297°
2026-04-16 18:33 31.24747 29.85437 33659 ft 446 kts 297°